SCP
0 0 -0 0 0 0 0 0 0 0 0 0 0 0 0 0 0 0 0 0 0 0 0 0 0 0 0 0 0 0 0 0 0 0 0 1 1 1 1 1 0 0 0 0 0 0 0 0 0
0 0 0 0 0 0 0 0 0 0 0 0 0 0 0 0 0 0 0 0 0 0 0 0 1 1 0 0 0 0 0 0 0 0 0 0 0 0 0 0 0 0 0 0 0 0 0 0 0
0 0 0 0 0 0 0 0 0 0 0 0 0 0 0 0 0 0 0 0 0 0 0 0 1 1 1 0 0 0 0 0 0 0 0 0 0 0 0 0 0 0 0 0 0 0 0 0 0
0 0 0 0 0 0 0 0 0 0 0 0 0 0 0 0 0 0 0 0 0 0 0 0 1 1 1 1 0 0 0 0 0 0 0 0 0 0 0 0 0 0 0 0 0 0 0 0 0
0 0 0 0 0 0 0 0 0 0 0 0 0 0 0 0 0 0 0 0 0 0 0 0 1 1 1 1 1 1 1 1 0 0 0 0 0 0 0 0 0 0 0 0 0 0 0 0 0
0 0 0 0 0 0 0 0 0 0 0 0 0 0 0 0 0 0 0 0 0 0 0 0 0 1 1 1 1 1 1 1 1 1 1 1 0 0 0 0 0 0 0 0 0 0 0 0 0
0 0 0 0 0 0 0 0 0 0 0 0 0 0 0 0 0 0 0 0 0 0 0 0 0 0 1 1 1 1 1 1 1 1 1 1 1 0 0 0 0 0 0 0 0 0 0 0 0
0 0 0 0 0 0 0 0 0 0 0 0 0 0 0 0 0 0 0 0 0 0 0 0 0 0 0 1 1 1 1 1 1 1 1 1 0 0 0 0 0 0 0 0 0 0 0 0 0
0 0 0 0 0 0 0 0 0 0 0 0 0 0 0 0 0 0 0 0 0 0 0 0 0 0 0 0 0 0 0 0 0 0 0 0 0 0 0 0 0 0 0 0 0 0 0 0 0
0 0 0 0 0 0 0 0 0 0 0 0 0 0 0 0 0 0 0 0 0 0 0 0 0 0 0 0 1 1 0 0 0 0 0 0 0 0 0 0 0 0 0 0 0 0 0 0 0
0 0 0 0 0 0 0 0 0 0 0 0 0 0 0 0 0 0 0 0 0 0 0 0 0 0 0 0 1 1 1 1 1 0 0 0 0 0 0 0 0 0 0 0 0 0 0 0 0
0 0 0 0 0 0 0 0 0 0 0 0 0 0 0 0 0 0 0 0 0 0 0 0 0 0 0 0 0 1 1 1 1 1 1 0 0 0 0 0 0 0 0 0 0 0 0 0 0
0 0 0 0 0 0 0 0 0 0 0 0 0 0 0 0 0 0 0 0 0 0 0 0 0 0 0 0 0 1 1 1 1 1 1 1 0 0 0 0 0 0 0 0 0 0 0 0 0
0 0 0 0 0 0 0 0 0 0 0 0 0 0 0 0 0 0 0 0 0 0 0 0 0 0 0 0 0 0 0 1 1 0 0 1 0 0 0 0 0 0 0 0 0 0 0 0 0
0 0 0 0 0 0 0 0 0 0 0 0 0 0 0 0 0 0 0 0 0 0 0 0 0 0 0 0 0 0 0 0 0 0 0 0 0 0 0 0 0 0 0 0 0 0 0 0 0
0 0 0 0 0 0 0 0 0 0 0 0 0 0 0 0 0 0 0 0 0 0 0 0 0 0 0 0 0 0 0 0 0 0 0 0 0 0 0 0 0 0 0 0 0 0 0 0 0
0 0 0 0 0 0 0 0 0 0 0 0 0 0 0 0 0 0 0 0 0 0 0 0 0 0 0 0 0 0 0 0 0 0 0 0 0 0 0 0 0 0 0 0 0 0 0 0 0
0 0 0 0 0 0 0 0 0 0 0 0 0 0 0 0 0 0 0 0 0 0 0 0 0 0 0 0 0 0 0 0 0 0 0 0 0 0 0 0 0 0 0 0 0 0 0 0 0
0 0 0 0 0 0 0 0 0 0 0 0 0 0 0 0 0 0 0 0 0 0 0 0 0 0 0 0 0 0 0 0 0 0 0 0 0 0 0 0 0 0 0 0 0 0 0 0 0
0 0 0 0 0 0 0 0 0 0 0 0 0 0 0 0 0 0 0 0 0 0 0 0 0 0 0 0 0 0 0 0 0 0 0 0 0 0 0 0 0 0 0 0 0 0 0 0 0
0 0 0 0 0 0 0 0 0 0 0 0 0 0 0 0 0 0 0 0 0 0 0 0 0 0 0 0 0 0 0 0 0 0 0 0 0 0 0 0 0 0 0 0 0 0 0 0 0
0 0 0 0 0 0 0 0 0 0 0 0 0 0 0 0 0 0 0 0 0 0 0 0 0 0 0 0 0 0 0 0 0 0 0 0 0 0 0 0 0 0 0 0 0 0 0 0 0
0 0 0 0 0 0 0 0 0 0 0 0 0 0 0 0 0 0 0 0 0 0 0 0 0 0 0 0 0 0 0 0 0 0 0 0 0 0 0 0 0 0 0 0 0 0 0 0 0
0 0 0 0 0 0 0 0 0 0 0 0 0 0 0 0 0 0 0 0 0 0 0 0 0 0 0 0 0 0 0 0 0 0 0 0 0 0 0 0 0 0 0 0 0 0 0 0 0
0 0 0 0 0 0 0 0 0 0 0 0 0 0 0 0 0 0 0 0 0 0 0 0 0 0 0 0 0 0 0 0 0 0 0 0 0 0 0 0 0 0 0 0 0 0 0 0 0
0 0 0 0 0 0 0 0 0 0 0 0 0 0 0 0 0 0 0 0 0 0 0 0 0 0 0 0 0 0 0 0 0 0 0 0 0 0 0 0 0 0 0 0 0 0 0 0 0
0 0 0 0 0 0 0 0 0 0 0 0 0 0 0 0 0 0 0 0 0 0 0 0 0 0 0 0 0 0 0 0 0 0 0 0 0 0 0 0 0 0 0 0 0 0 0 0 0
0 0 0 0 0 0 0 0 0 0 0 0 0 0 0 0 0 0 0 0 0 0 0 0 0 0 0 0 0 0 0 0 0 0 0 0 0 0 0 0 0 0 0 0 0 0 0 0 0
0 0 0 0 0 0 0 0 0 0 0 0 0 0 0 0 0 0 0 0 0 0 0 0 0 0 0 0 0 0 0 0 0 0 0 0 0 0 0 0 0 0 0 0 0 0 0 0 0
0 0 0 0 0 0 0 0 0 0 0 0 0 0 0 0 0 0 0 0 0 0 0 0 0 0 0 0 0 0 0 0 0 0 0 0 0 0 0 0 0 0 0 0 0 0 0 0 -0
Wind_Speed
6 3 3 5 7 6 1 2 1 2 2 1 1 3 3 2 2 2 2 5 4 6 9 9 11 12 12 11 11 10 10 10 10 9 9 9 9 9 10 10 10 10 10 10 10 10 10 10 10
2 2 5 6 7 3 3 3 2 2 1 1 1 2 1 1 2 2 1 4 4 6 8 9 11 12 12 12 11 10 10 10 9 9 9 9 9 9 9 9 9 8 8 8 9 9 9 9 9
1 4 5 6 5 5 3 3 3 3 2 1 1 0 1 1 2 2 1 5 4 5 7 8 12 12 13 12 12 11 10 10 9 9 8 9 8 8 8 8 7 7 6 6 7 7 8 8 8
3 5 6 6 2 4 3 2 1 2 2 2 1 2 2 1 2 2 0 5 5 5 6 7 12 13 13 13 12 12 11 10 10 9 9 9 9 9 8 7 6 5 5 4 5 6 7 7 7
5 6 6 4 2 3 3 3 1 0 1 1 1 1 4 2 1 2 3 4 5 5 5 6 11 12 12 12 12 12 11 10 10 9 9 9 9 9 7 6 5 4 3 3 4 5 6 6 6
6 6 5 1 2 4 3 3 1 1 2 1 1 1 3 2 2 2 3 3 3 4 4 4 9 10 11 11 11 11 10 10 9 9 9 9 10 9 7 5 4 2 2 2 3 4 5 5 5
5 5 4 2 1 3 4 4 1 2 3 3 0 1 3 3 2 2 3 3 2 2 3 3 5 6 9 10 10 10 9 9 8 8 8 8 9 8 7 5 3 2 1 1 2 3 4 4 4
5 6 3 1 1 1 3 3 1 1 2 4 0 1 2 4 4 3 4 4 2 1 1 2 4 5 5 6 9 9 9 8 8 7 7 8 8 8 7 5 3 2 1 1 2 2 3 4 5
4 6 2 4 4 2 1 2 2 1 2 3 1 1 3 4 4 4 4 5 4 4 3 2 4 5 5 5 6 7 8 8 7 5 6 6 4 4 5 5 4 2 1 2 2 2 3 6 6
5 3 4 3 3 2 1 1 3 3 4 3 3 3 6 7 7 7 6 7 7 7 6 4 4 5 6 4 4 4 4 4 4 3 3 3 3 3 4 5 4 2 1 1 2 3 6 6 3
3 4 3 3 2 1 2 2 1 0 3 2 3 5 8 9 10 10 8 7 7 7 7 6 5 5 6 5 4 3 2 3 3 4 4 4 3 3 3 2 2 2 2 2 2 4 3 3 2
1 2 3 2 1 0 2 2 2 3 3 3 5 5 7 11 11 11 10 9 9 9 9 8 6 5 6 5 4 3 3 3 2 3 4 4 3 3 3 2 2 2 2 2 2 2 2 2 2
1 3 2 3 3 3 3 4 3 3 2 7 11 13 12 11 9 8 7 8 9 10 11 10 7 5 4 5 3 3 3 3 3 3 4 4 3 4 3 3 3 3 3 3 2 2 1 1 1
2 2 5 5 3 2 3 3 2 2 5 9 11 11 10 11 10 10 12 13 12 12 12 11 9 4 2 3 3 2 2 2 2 2 4 4 3 3 3 3 3 3 3 3 3 3 2 1 1
0 3 7 4 2 1 1 3 3 2 6 9 9 8 10 10 11 12 11 10 10 11 11 11 9 7 3 2 2 2 2 2 1 0 1 2 3 4 4 3 3 3 3 3 3 3 2 1 0
2 2 4 5 1 0 2 4 1 3 7 7 6 7 8 9 10 10 11 10 10 10 11 11 10 10 9 7 7 6 5 5 4 3 3 3 1 1 2 2 1 2 2 2 2 2 2 1 1
1 2 4 6 1 1 2 5 3 5 7 6 6 6 7 9 11 11 11 10 10 10 10 11 12 12 11 11 11 11 10 10 9 9 8 8 8 6 4 3 2 2 1 1 1 1 1 1 2
7 6 5 6 2 1 2 6 5 7 7 6 5 6 7 9 10 9 10 10 9 9 10 12 12 12 9 9 10 11 12 11 11 11 12 14 11 11 8 6 6 4 3 3 2 2 2 1 1
6 7 6 5 2 1 5 7 5 4 6 6 5 5 6 6 6 7 9 9 10 12 13 13 14 12 9 6 6 7 9 9 10 12 15 15 14 14 12 8 8 7 5 4 3 3 2 2 2
4 4 5 5 2 3 4 6 1 4 4 3 4 4 4 5 7 9 9 10 11 11 11 12 13 13 11 7 5 5 6 7 8 9 13 15 15 14 11 11 8 8 6 7 5 3 2 2 2
6 7 6 6 2 2 2 6 2 3 3 5 4 4 3 4 5 6 8 9 9 11 11 10 12 12 12 9 6 6 6 5 7 10 10 13 13 13 13 12 10 9 8 7 7 5 3 2 1
7 8 7 4 2 3 1 5 5 4 3 2 2 2 2 3 4 4 6 7 8 8 7 9 11 12 11 10 12 14 11 9 6 5 6 9 12 13 13 12 12 10 9 9 7 6 4 3 2
6 3 5 3 4 1 2 4 8 2 4 5 5 4 2 2 2 3 4 5 5 6 7 7 10 12 11 11 11 12 11 7 5 5 9 9 9 12 12 11 11 10 9 9 9 8 7 4 3
7 7 6 5 4 4 6 7 8 5 5 6 7 6 5 4 2 2 3 4 5 6 6 7 10 11 9 11 11 12 11 9 9 9 8 7 6 8 11 10 9 9 8 8 8 7 7 6 5
5 6 2 2 1 7 2 4 10 3 2 7 12 10 7 5 4 3 3 4 4 5 5 6 8 9 8 9 10 9 9 9 9 7 7 6 5 6 8 8 8 7 7 7 7 7 7 6 6
7 9 8 7 6 5 3 8 7 1 1 3 8 8 7 6 5 5 4 4 4 4 4 5 7 7 6 7 7 7 7 5 5 5 5 5 4 4 5 6 6 6 7 7 6 5 5 5 5
7 5 5 7 2 3 7 7 5 2 2 4 7 7 8 8 7 6 5 5 4 4 4 5 6 6 5 6 6 6 5 5 5 4 4 3 3 3 5 5 5 5 6 6 5 4 5 5 5
6 9 6 6 5 6 6 5 6 7 7 7 9 11 10 8 7 7 6 6 5 4 4 4 5 5 4 4 4 4 4 4 4 3 4 4 3 4 5 5 5 5 5 5 5 5 5 5 5
7 5 5 5 6 6 6 8 6 8 11 14 15 13 11 10 9 8 7 6 6 5 4 4 4 4 3 3 3 3 3 3 3 3 3 3 3 4 5 5 6 6 6 6 5 6 6 7 7
6 9 10 8 7 6 5 8 1 3 7 11 12 11 10 9 9 8 8 7 6 6 5 5 4 4 3 3 2 2 2 2 2 3 3 3 4 4 5 5 5 6 7 6 7 8 8 8 9
Wind_Direction
350 32 66 56 53 50 47 287 264 295 268 247 166 143 141 163 162 255 301 151 158 150 164 175 170 167 162 156 151 148 144 138 133 126 121 115 111 108 103 98 92 84 75 67 60 54 49 46 45
338 37 55 59 80 73 288 277 266 260 302 21 84 116 102 275 247 276 352 183 170 156 163 170 170 168 164 159 158 158 155 150 144 138 131 125 120 114 107 99 91 81 71 62 55 49 45 42 40
50 52 78 72 95 159 215 238 236 298 350 36 33 63 171 274 303 299 300 174 154 157 166 170 171 170 168 165 165 166 165 161 156 150 145 139 130 121 110 101 93 81 70 61 52 44 41 38 36
71 45 53 70 102 209 229 275 247 321 11 37 55 3 309 301 302 312 34 147 147 162 168 173 175 176 174 172 173 174 174 172 168 164 159 151 140 129 120 110 99 85 72 60 54 44 36 33 32
58 70 59 51 301 278 265 302 285 276 350 352 85 356 307 337 337 28 100 140 156 164 170 177 181 183 181 180 181 182 182 181 179 177 173 163 152 140 130 123 111 95 75 62 58 46 33 28 28
54 63 84 137 298 318 334 341 352 359 340 350 116 354 311 1 17 50 101 134 158 165 172 179 190 190 188 188 189 189 190 189 189 187 182 171 160 151 143 139 133 121 89 68 59 48 35 29 30
93 89 134 161 305 341 341 335 53 351 339 334 241 13 321 7 16 71 92 108 133 162 174 187 190 197 197 195 194 195 196 196 196 194 188 175 165 157 150 145 150 154 139 92 71 56 37 30 33
111 98 102 162 192 282 318 344 97 328 292 320 67 38 334 349 10 61 65 59 53 54 221 218 204 198 199 201 202 201 202 203 203 203 191 179 169 158 151 148 154 172 190 152 100 72 40 36 33
81 77 169 208 189 220 316 12 320 289 310 328 14 39 343 341 16 39 31 15 7 356 333 280 238 218 207 201 201 203 207 210 209 210 196 174 156 151 150 157 161 163 166 163 142 110 66 52 30
79 129 220 217 197 219 307 293 310 4 342 325 339 3 5 18 28 27 14 355 349 340 332 310 265 238 221 208 194 193 195 203 201 186 174 158 152 155 148 161 160 134 94 149 171 119 75 62 28
112 182 232 253 233 244 291 282 278 325 294 274 300 334 6 23 27 22 10 358 341 327 328 323 293 257 231 217 199 188 181 184 190 181 167 157 149 140 134 127 123 90 71 60 55 75 75 65 38
147 237 221 251 148 285 252 276 278 211 229 52 46 37 32 33 28 18 6 355 344 340 336 326 306 272 240 223 207 190 178 178 180 173 165 157 152 152 152 149 146 131 117 120 102 108 101 72 41
221 277 274 264 280 253 247 240 252 264 78 69 66 57 46 38 25 11 3 358 353 349 341 332 317 283 245 221 209 192 185 180 174 166 167 166 165 171 170 164 158 156 145 152 154 152 149 76 14
251 282 302 293 283 255 232 259 192 258 97 73 64 56 44 36 22 15 10 4 358 351 343 337 337 322 248 205 194 180 169 163 165 170 177 175 172 174 174 172 173 179 173 167 163 166 166 165 351
31 333 316 291 270 262 170 299 221 179 89 70 62 55 46 36 27 20 5 358 350 347 347 354 357 7 42 96 108 94 90 99 105 162 183 185 181 180 175 176 189 193 165 152 141 140 134 166 257
80 24 302 294 307 261 158 263 330 78 85 77 63 51 44 34 25 16 6 0 355 355 1 8 16 29 48 63 70 66 60 57 44 32 31 30 47 115 144 162 199 157 139 150 155 147 169 211 240
23 235 243 290 298 134 173 248 297 32 77 80 66 51 43 34 23 12 5 1 360 2 9 19 24 34 49 63 66 62 56 49 41 36 31 29 32 37 47 42 37 74 93 118 139 127 161 228 250
214 209 230 250 277 126 227 263 309 25 67 75 66 54 46 40 20 6 3 3 4 10 22 29 32 32 41 59 66 63 57 50 46 42 36 36 35 36 40 40 37 42 44 34 22 34 42 2 319
168 177 216 244 252 231 243 260 301 17 61 71 67 58 48 37 13 13 11 9 17 24 30 32 37 31 38 48 53 58 55 48 48 45 40 39 38 38 40 39 37 35 39 36 34 35 25 14 11
165 189 234 274 263 216 257 265 334 37 59 78 92 73 57 42 21 17 17 20 24 28 29 36 38 37 41 50 60 72 77 58 54 48 44 39 39 37 39 37 36 31 33 34 33 37 28 19 22
202 202 211 228 330 17 316 289 207 96 87 73 70 70 61 62 39 19 20 20 25 30 27 38 41 44 42 48 69 72 63 56 45 39 41 37 39 40 39 37 36 33 34 29 22 21 19 357 354
224 213 194 192 183 275 305 283 275 163 141 121 112 94 78 56 46 35 28 28 27 24 25 41 49 50 45 50 67 73 74 69 49 45 47 43 42 41 40 38 37 35 33 27 19 19 12 5 345
193 130 146 159 172 251 249 228 272 161 198 195 185 175 159 119 83 60 44 43 35 28 36 44 57 56 52 57 66 77 78 76 66 54 51 44 39 38 36 37 37 35 31 26 22 19 19 14 357
129 85 67 55 87 245 217 197 264 221 201 175 184 188 183 164 131 94 68 61 53 43 46 53 66 62 56 64 67 76 81 77 68 55 48 40 35 33 31 32 33 32 28 24 17 18 20 14 5
130 114 67 335 281 246 197 208 249 210 164 179 181 184 186 177 166 150 119 91 78 68 63 66 77 71 62 69 70 73 77 75 71 64 54 47 37 29 22 25 26 25 21 20 15 18 16 9 2
178 156 168 201 222 263 225 229 250 107 333 174 162 167 174 183 184 176 162 140 118 103 91 86 85 83 75 76 75 73 76 78 76 69 65 56 44 31 16 19 21 18 16 15 11 11 5 358 350
145 193 155 121 108 269 256 267 282 130 104 130 150 168 190 195 191 186 179 168 155 140 127 117 107 99 92 92 91 82 80 80 79 73 65 56 37 24 16 14 12 7 5 4 1 357 347 339 334
149 144 122 149 192 247 268 246 235 207 199 182 188 196 204 200 194 192 189 186 179 167 151 134 125 122 119 110 103 100 90 84 81 70 53 40 24 16 8 6 1 355 352 351 348 335 325 324 317
140 155 153 150 161 177 254 259 225 205 185 190 200 201 200 199 196 193 193 192 185 177 170 158 150 139 133 128 118 105 92 79 65 54 36 20 10 6 2 354 348 344 341 338 330 320 315 312 306
181 177 156 169 210 200 219 263 310 205 184 187 196 200 202 201 195 191 189 188 188 190 189 185 178 173 176 169 149 128 103 70 49 32 17 10 0 356 350 344 340 336 334 329 322 315 313 303 301